(°F)
50°
50°
51°
51°
52°
52°
53°
(°F)
39°
40°
40°
41°
41°
43°
45°
E
E
ESE
ESE
SE
SE
ESE
(mph)
12-14
12-15
12-15
13-17
13-18
13-20
13-20
(in)
0.1
0
0
0
0
0
0
(%)
25
25
8
8
9
38
46

Sun elevation

/ 3.8°
sun-icon
UV 2
06:22
18:41
Waning gibbous moon (198°)
19:26
07:35

METAR for 53.5°N 50.15°E (UWWW)

Time Conditions Temperature/
Dewpoint
Wind Visibility Weather Clouds Pressure Change Raw
VFR 50°F / 39.2°F 140º 12kt >10km Light Rain 1.00mm precipitation Vertical Visibility of 0ft. 1015 No Significant change. Runway 15: Wet or puddles, 51-100% contamination with 1mm, friction coefficient 0.50. UWWW 220230Z 14006MPS 9999 -RA SCT033 10/04 Q1015 R15/290150 NOSIG RMK QFE749/0999
VFR 50°F / 39.2°F 140º 14kt >10km Light Rain 1.00mm precipitation Vertical Visibility of 0ft. 1014 No Significant change. Runway 15: Damp, 51-100% contamination with <1mm, friction coefficient 0.55. UWWW 220200Z 14007MPS 9999 -RA SCT033 10/04 Q1014 R15/190055 NOSIG RMK QFE749/0999
VFR 50°F / 37.4°F 150º 14kt 9000m Light Showers Rain 3.00mm precipitation Vertical Visibility of 0ft. 1015 No Significant change. Runway 15: Damp, 51-100% contamination with <1mm, friction coefficient 0.55. UWWW 220130Z 15007MPS 9000 -SHRA SCT033CB 10/03 Q1015 R15/190055 NOSIG RMK QFE749/0999
VFR 51.8°F / 32°F 100º 10kt >10km - Scattered Clouds 3300ft 1014 No Significant change. Runway 15: Damp, 51-100% contamination with <1mm, friction coefficient 0.55. UWWW 220100Z 10005MPS 9999 SCT033CB 11/00 Q1014 R15/190055 NOSIG RMK QFE749/0999
VFR 48.2°F / 33.8°F 100º 8kt >10km - Scattered Clouds 3300ft 1014 No Significant change. Runway 15: Damp, 51-100% contamination with <1mm, friction coefficient 0.55. UWWW 220030Z 10004MPS 9999 SCT033 09/01 Q1014 R15/190055 NOSIG RMK QFE749/0999
VFR 48.2°F / 32°F 80º 10kt >10km - Scattered Clouds 3300ft 1015 No Significant change. Runway 15: Damp, 51-100% contamination with <1mm, friction coefficient 0.55. UWWW 220000Z 08005MPS 9999 SCT033 09/00 Q1015 R15/190055 NOSIG RMK QFE749/0999
VFR 48.2°F / 32°F 80º 10kt >10km - Scattered Clouds 3300ft 1015 No Significant change. Runway 15: Damp, 51-100% contamination with <1mm, friction coefficient 0.55. UWWW 212330Z 08005MPS 9999 SCT033 09/00 Q1015 R15/190055 NOSIG RMK QFE749/0999
VFR 46.4°F / 32°F 90º 10kt >10km - Clouds and Visibility OK 1015 No Significant change. Runway 15: Damp, 51-100% contamination with <1mm, friction coefficient 0.55. UWWW 212300Z 09005MPS CAVOK 08/00 Q1015 R15/190055 NOSIG RMK QFE749/0999
VFR 46.4°F / 32°F 90º 10kt >10km - Clouds and Visibility OK 1015 No Significant change. Runway 15: Damp, 51-100% contamination with <1mm, friction coefficient 0.55. UWWW 212230Z 09005MPS CAVOK 08/00 Q1015 R15/190055 NOSIG RMK QFE750/1000
VFR 44.6°F / 32°F 80º 10kt >10km - Clouds and Visibility OK 1015 No Significant change. Runway 15: Damp, 51-100% contamination with <1mm, friction coefficient 0.55. UWWW 212200Z 08005MPS CAVOK 07/00 Q1015 R15/190055 NOSIG RMK QFE750/1000
VFR 44.6°F / 32°F 70º 8kt >10km - Clouds and Visibility OK 1015 No Significant change. Runway 15: Damp, 51-100% contamination with <1mm, friction coefficient 0.55. UWWW 212130Z 07004MPS CAVOK 07/00 Q1015 R15/190055 NOSIG RMK QFE750/1000
VFR 46.4°F / 32°F 60º variable 040º to 150º 6kt >10km - Clouds and Visibility OK 1015 No Significant change. Runway 15: Damp, 51-100% contamination with <1mm, friction coefficient 0.55. UWWW 212100Z 06003MPS 040V150 CAVOK 08/00 Q1015 R15/190055 NOSIG RMK QFE750/1000
VFR 48.2°F / 32°F 90º 12kt >10km - Scattered Clouds 3300ft 1016 No Significant change. Runway 15: Damp, 51-100% contamination with <1mm, friction coefficient 0.55. UWWW 212030Z 09006MPS 9999 SCT033 09/00 Q1016 R15/190055 NOSIG RMK QFE750/1000
VFR 50°F / 32°F 80º 8kt >10km - Scattered Clouds 3300ft 1016 No Significant change. Runway 15: Damp, 51-100% contamination with <1mm, friction coefficient 0.55. UWWW 212000Z 08004MPS 9999 SCT033 10/00 Q1016 R15/190055 NOSIG RMK QFE750/1001
VFR 50°F / 33.8°F 80º 8kt >10km - Scattered Clouds 3300ft 1016 No Significant change. Runway 15: Damp, 51-100% contamination with <1mm, friction coefficient 0.55. UWWW 211930Z 08004MPS 9999 SCT033 10/01 Q1016 R15/190055 NOSIG RMK QFE751/1001
VFR 48.2°F / 33.8°F 80º 8kt >10km - Scattered Clouds 3300ft 1017 No Significant change. Runway 15: Damp, 51-100% contamination with <1mm, friction coefficient 0.55. UWWW 211900Z 08004MPS 9999 SCT033 09/01 Q1017 R15/190055 NOSIG RMK QFE751/1001
VFR 50°F / 35.6°F 80º 10kt >10km - Scattered Clouds 3300ft 1017 No Significant change. Runway 15: Damp, 51-100% contamination with <1mm, friction coefficient 0.55. UWWW 211830Z 08005MPS 9999 SCT033 10/02 Q1017 R15/190055 NOSIG RMK QFE751/1002
VFR 48.2°F / 35.6°F 80º 10kt >10km - Scattered Clouds 3300ft 1017 No Significant change. Runway 15: Damp, 51-100% contamination with <1mm, friction coefficient 0.55. UWWW 211800Z 08005MPS 9999 SCT033 09/02 Q1017 R15/190055 NOSIG RMK QFE751/1002
VFR 48.2°F / 37.4°F 80º variable 060º to 120º 10kt >10km - Scattered Clouds 3300ft 1017 No Significant change. Runway 15: Damp, 51-100% contamination with <1mm, friction coefficient 0.55. UWWW 211730Z 08005MPS 060V120 9999 SCT033 09/03 Q1017 R15/190055 NOSIG RMK QFE751/1002
VFR 50°F / 37.4°F 80º 12kt >10km - Scattered Clouds 3300ft 1018 No Significant change. Runway 15: Damp, 51-100% contamination with <1mm, friction coefficient 0.55. UWWW 211700Z 08006MPS 9999 SCT033 10/03 Q1018 R15/190055 NOSIG RMK QFE752/1002
VFR 50°F / 37.4°F 70º 10kt >10km - Scattered Clouds 3300ft 1018 No Significant change. Runway 15: Damp, 51-100% contamination with <1mm, friction coefficient 0.55. UWWW 211630Z 07005MPS 9999 SCT033 10/03 Q1018 R15/190055 NOSIG RMK QFE752/1002
VFR 50°F / 37.4°F 70º variable 060º to 120º 10kt >10km - Scattered Clouds 3300ft 1018 No Significant change. Runway 15: Damp, 51-100% contamination with <1mm, friction coefficient 0.55. UWWW 211600Z 07005MPS 060V120 9999 SCT033 10/03 Q1018 R15/190055 NOSIG RMK QFE752/1003
VFR 50°F / 37.4°F 80º 10kt >10km - Scattered Clouds 3300ft 1018 No Significant change. Runway 15: Damp, 51-100% contamination with <1mm, friction coefficient 0.55. UWWW 211530Z 08005MPS 9999 SCT033 10/03 Q1018 R15/190055 NOSIG RMK QFE752/1003
VFR 50°F / 37.4°F 70º 12kt >10km Light Rain 1.00mm precipitation Vertical Visibility of 0ft. 1018 No Significant change. Runway 15: Damp, 51-100% contamination with <1mm, friction coefficient 0.55. UWWW 211500Z 07006MPS 9999 -RA SCT033 10/03 Q1018 R15/190055 NOSIG RMK QFE752/1003

VFR

50°F / 39.2°F

[More]
Wind 140º 12kt
Visibility >10km
Weather Light Rain 1.00mm precipitation
Clouds Vertical Visibility of 0ft.
Pressure 1015
Change No Significant change. Runway 15: Wet or puddles, 51-100% contamination with 1mm, friction coefficient 0.50.
Raw UWWW 220230Z 14006MPS 9999 -RA SCT033 10/04 Q1015 R15/290150 NOSIG RMK QFE749/0999

VFR

50°F / 39.2°F

[More]
Wind 140º 14kt
Visibility >10km
Weather Light Rain 1.00mm precipitation
Clouds Vertical Visibility of 0ft.
Pressure 1014
Change No Significant change. Runway 15: Damp, 51-100% contamination with <1mm, friction coefficient 0.55.
Raw UWWW 220200Z 14007MPS 9999 -RA SCT033 10/04 Q1014 R15/190055 NOSIG RMK QFE749/0999

VFR

50°F / 37.4°F

[More]
Wind 150º 14kt
Visibility 9000m
Weather Light Showers Rain 3.00mm precipitation
Clouds Vertical Visibility of 0ft.
Pressure 1015
Change No Significant change. Runway 15: Damp, 51-100% contamination with <1mm, friction coefficient 0.55.
Raw UWWW 220130Z 15007MPS 9000 -SHRA SCT033CB 10/03 Q1015 R15/190055 NOSIG RMK QFE749/0999

VFR

51.8°F / 32°F

[More]
Wind 100º 10kt
Visibility >10km
Weather -
Clouds Scattered Clouds 3300ft
Pressure 1014
Change No Significant change. Runway 15: Damp, 51-100% contamination with <1mm, friction coefficient 0.55.
Raw UWWW 220100Z 10005MPS 9999 SCT033CB 11/00 Q1014 R15/190055 NOSIG RMK QFE749/0999

VFR

48.2°F / 33.8°F

[More]
Wind 100º 8kt
Visibility >10km
Weather -
Clouds Scattered Clouds 3300ft
Pressure 1014
Change No Significant change. Runway 15: Damp, 51-100% contamination with <1mm, friction coefficient 0.55.
Raw UWWW 220030Z 10004MPS 9999 SCT033 09/01 Q1014 R15/190055 NOSIG RMK QFE749/0999

VFR

48.2°F / 32°F

[More]
Wind 80º 10kt
Visibility >10km
Weather -
Clouds Scattered Clouds 3300ft
Pressure 1015
Change No Significant change. Runway 15: Damp, 51-100% contamination with <1mm, friction coefficient 0.55.
Raw UWWW 220000Z 08005MPS 9999 SCT033 09/00 Q1015 R15/190055 NOSIG RMK QFE749/0999

VFR

48.2°F / 32°F

[More]
Wind 80º 10kt
Visibility >10km
Weather -
Clouds Scattered Clouds 3300ft
Pressure 1015
Change No Significant change. Runway 15: Damp, 51-100% contamination with <1mm, friction coefficient 0.55.
Raw UWWW 212330Z 08005MPS 9999 SCT033 09/00 Q1015 R15/190055 NOSIG RMK QFE749/0999

VFR

46.4°F / 32°F

[More]
Wind 90º 10kt
Visibility >10km
Weather -
Clouds Clouds and Visibility OK
Pressure 1015
Change No Significant change. Runway 15: Damp, 51-100% contamination with <1mm, friction coefficient 0.55.
Raw UWWW 212300Z 09005MPS CAVOK 08/00 Q1015 R15/190055 NOSIG RMK QFE749/0999

VFR

46.4°F / 32°F

[More]
Wind 90º 10kt
Visibility >10km
Weather -
Clouds Clouds and Visibility OK
Pressure 1015
Change No Significant change. Runway 15: Damp, 51-100% contamination with <1mm, friction coefficient 0.55.
Raw UWWW 212230Z 09005MPS CAVOK 08/00 Q1015 R15/190055 NOSIG RMK QFE750/1000

VFR

44.6°F / 32°F

[More]
Wind 80º 10kt
Visibility >10km
Weather -
Clouds Clouds and Visibility OK
Pressure 1015
Change No Significant change. Runway 15: Damp, 51-100% contamination with <1mm, friction coefficient 0.55.
Raw UWWW 212200Z 08005MPS CAVOK 07/00 Q1015 R15/190055 NOSIG RMK QFE750/1000

VFR

44.6°F / 32°F

[More]
Wind 70º 8kt
Visibility >10km
Weather -
Clouds Clouds and Visibility OK
Pressure 1015
Change No Significant change. Runway 15: Damp, 51-100% contamination with <1mm, friction coefficient 0.55.
Raw UWWW 212130Z 07004MPS CAVOK 07/00 Q1015 R15/190055 NOSIG RMK QFE750/1000

VFR

46.4°F / 32°F

[More]
Wind 60º variable 040º to 150º 6kt
Visibility >10km
Weather -
Clouds Clouds and Visibility OK
Pressure 1015
Change No Significant change. Runway 15: Damp, 51-100% contamination with <1mm, friction coefficient 0.55.
Raw UWWW 212100Z 06003MPS 040V150 CAVOK 08/00 Q1015 R15/190055 NOSIG RMK QFE750/1000

VFR

48.2°F / 32°F

[More]
Wind 90º 12kt
Visibility >10km
Weather -
Clouds Scattered Clouds 3300ft
Pressure 1016
Change No Significant change. Runway 15: Damp, 51-100% contamination with <1mm, friction coefficient 0.55.
Raw UWWW 212030Z 09006MPS 9999 SCT033 09/00 Q1016 R15/190055 NOSIG RMK QFE750/1000

VFR

50°F / 32°F

[More]
Wind 80º 8kt
Visibility >10km
Weather -
Clouds Scattered Clouds 3300ft
Pressure 1016
Change No Significant change. Runway 15: Damp, 51-100% contamination with <1mm, friction coefficient 0.55.
Raw UWWW 212000Z 08004MPS 9999 SCT033 10/00 Q1016 R15/190055 NOSIG RMK QFE750/1001

VFR

50°F / 33.8°F

[More]
Wind 80º 8kt
Visibility >10km
Weather -
Clouds Scattered Clouds 3300ft
Pressure 1016
Change No Significant change. Runway 15: Damp, 51-100% contamination with <1mm, friction coefficient 0.55.
Raw UWWW 211930Z 08004MPS 9999 SCT033 10/01 Q1016 R15/190055 NOSIG RMK QFE751/1001

VFR

48.2°F / 33.8°F

[More]
Wind 80º 8kt
Visibility >10km
Weather -
Clouds Scattered Clouds 3300ft
Pressure 1017
Change No Significant change. Runway 15: Damp, 51-100% contamination with <1mm, friction coefficient 0.55.
Raw UWWW 211900Z 08004MPS 9999 SCT033 09/01 Q1017 R15/190055 NOSIG RMK QFE751/1001

VFR

50°F / 35.6°F

[More]
Wind 80º 10kt
Visibility >10km
Weather -
Clouds Scattered Clouds 3300ft
Pressure 1017
Change No Significant change. Runway 15: Damp, 51-100% contamination with <1mm, friction coefficient 0.55.
Raw UWWW 211830Z 08005MPS 9999 SCT033 10/02 Q1017 R15/190055 NOSIG RMK QFE751/1002

VFR

48.2°F / 35.6°F

[More]
Wind 80º 10kt
Visibility >10km
Weather -
Clouds Scattered Clouds 3300ft
Pressure 1017
Change No Significant change. Runway 15: Damp, 51-100% contamination with <1mm, friction coefficient 0.55.
Raw UWWW 211800Z 08005MPS 9999 SCT033 09/02 Q1017 R15/190055 NOSIG RMK QFE751/1002

VFR

48.2°F / 37.4°F

[More]
Wind 80º variable 060º to 120º 10kt
Visibility >10km
Weather -
Clouds Scattered Clouds 3300ft
Pressure 1017
Change No Significant change. Runway 15: Damp, 51-100% contamination with <1mm, friction coefficient 0.55.
Raw UWWW 211730Z 08005MPS 060V120 9999 SCT033 09/03 Q1017 R15/190055 NOSIG RMK QFE751/1002

VFR

50°F / 37.4°F

[More]
Wind 80º 12kt
Visibility >10km
Weather -
Clouds Scattered Clouds 3300ft
Pressure 1018
Change No Significant change. Runway 15: Damp, 51-100% contamination with <1mm, friction coefficient 0.55.
Raw UWWW 211700Z 08006MPS 9999 SCT033 10/03 Q1018 R15/190055 NOSIG RMK QFE752/1002

VFR

50°F / 37.4°F

[More]
Wind 70º 10kt
Visibility >10km
Weather -
Clouds Scattered Clouds 3300ft
Pressure 1018
Change No Significant change. Runway 15: Damp, 51-100% contamination with <1mm, friction coefficient 0.55.
Raw UWWW 211630Z 07005MPS 9999 SCT033 10/03 Q1018 R15/190055 NOSIG RMK QFE752/1002

VFR

50°F / 37.4°F

[More]
Wind 70º variable 060º to 120º 10kt
Visibility >10km
Weather -
Clouds Scattered Clouds 3300ft
Pressure 1018
Change No Significant change. Runway 15: Damp, 51-100% contamination with <1mm, friction coefficient 0.55.
Raw UWWW 211600Z 07005MPS 060V120 9999 SCT033 10/03 Q1018 R15/190055 NOSIG RMK QFE752/1003

VFR

50°F / 37.4°F

[More]
Wind 80º 10kt
Visibility >10km
Weather -
Clouds Scattered Clouds 3300ft
Pressure 1018
Change No Significant change. Runway 15: Damp, 51-100% contamination with <1mm, friction coefficient 0.55.
Raw UWWW 211530Z 08005MPS 9999 SCT033 10/03 Q1018 R15/190055 NOSIG RMK QFE752/1003

VFR

50°F / 37.4°F

[More]
Wind 70º 12kt
Visibility >10km
Weather Light Rain 1.00mm precipitation
Clouds Vertical Visibility of 0ft.
Pressure 1018
Change No Significant change. Runway 15: Damp, 51-100% contamination with <1mm, friction coefficient 0.55.
Raw UWWW 211500Z 07006MPS 9999 -RA SCT033 10/03 Q1018 R15/190055 NOSIG RMK QFE752/1003

TAF for 53.5°N 50.15°E (UWWW)

From till


Maximum Temperature 14ºC on . Minimum Temperature 8ºC on .
From till Wind 140º 12kt. Gust 25kt. Visibility 6000m. Light Rain . Broken Clouds 1600ft.
Temporarly from till Visibility 997.791m. Showers Rain Mist . Broken Clouds 300ft. Broken Clouds 1100ft.
Becoming from till Wind 100º 6kt. Gust 17kt. Visibility 6000m. Light Rain . Broken Clouds 1600ft.

Raw: TAF UWWW 220156Z 2203/2303 14006G13MPS 6000 -RA BKN016 TX14/2210Z TN08/2302Z TEMPO 2203/2216 1000 SHRA BR BKN003 BKN011CB BECMG 2216/2218 10003G09MPS

Current satellite and rain images for 53.5°N 50.15°E

The location marker is placed on 53.5°N 50.15°E. [More]

The real-time satellite image combines visible light during daytime with infrared radiation during nighttime. At night, the image is not dark as infrared radiation can detect temperature differences. Unfortunately, low clouds and fog are difficult to distinguish from ground temperatures and thus can be almost invisible during the night. Meteosat satellite images for Europe are updated in real-time every 5 minutes. GOES-16/GOES-17 (North & South America) and Himawari (Asia) images update every 10 minutes.

Copyright 2021 EUMETSAT / meteoblue. / Copyright 2021 meteoblue

Radar and precipitation nowcast for 53.5°N 50.15°E

Drizzle
Light
Moderate
Heavy
Very Heavy
Hail

The location marker is placed on 53.5°N 50.15°E. This animation shows the precipitation radar for the last hour, as well as a 1h forecast. Drizzle or light snow fall might be invisible for the radar. Precipitation intensity is colour coded, ranging from light blue to orange.